Location: Casteau
(50.5142°N, 4.0161°E)
Time: 06:38:12
(UTC+00:00)

Transit 4A - Visible Passes

Search period start: 24 July 2021 00:00
Search period end: 03 August 2021 00:00
Orbit: 872 x 972 km, 66.8° (Epoch: 23 July)

Date Brightness Start Highest point End Pass type
(mag) Time Alt. Az. Time Alt. Az. Time Alt. Az.
24 Jul 8.8 00:53:59 23° SSE 00:56:41 33° ESE 01:01:51 10° NE visible
24 Jul 8.2 02:37:29 12° SW 02:42:47 57° NW 02:48:33 10° NNE visible
25 Jul 8.3 01:03:02 27° S 01:05:49 47° ESE 01:11:23 10° NE visible
25 Jul 8.6 02:46:38 10° WSW 02:52:15 44° NW 02:57:50 10° NNE visible
25 Jul 9.8 23:28:33 12° ESE 23:29:46 13° ESE 23:32:07 10° ENE visible
26 Jul 7.9 01:12:03 30° SSW 01:15:01 66° ESE 01:20:48 10° NE visible
26 Jul 9.0 02:56:26 10° WSW 03:01:46 34° NW 03:07:05 10° NNE visible
26 Jul 9.4 23:37:32 18° ESE 23:38:42 19° ESE 23:42:38 10° ENE visible
27 Jul 7.7 01:21:02 28° SW 01:24:17 89° SE 01:30:09 10° NE visible
27 Jul 9.3 03:06:22 10° W 03:11:22 28° NNW 03:16:21 10° NNE visible
27 Jul 8.9 23:46:29 25° SE 23:47:44 27° ESE 23:52:31 10° NE visible
28 Jul 8.0 01:30:00 24° SW 01:33:37 69° NW 01:39:28 10° NE visible
28 Jul 9.6 03:16:23 10° WNW 03:21:01 23° NNW 03:25:39 10° NNE visible
28 Jul 8.5 23:55:24 33° SE 23:56:49 38° ESE 00:02:08 10° NE visible
29 Jul 8.4 01:38:54 19° WSW 01:43:02 52° NW 01:48:45 10° NNE visible
29 Jul 9.8 03:26:28 10° WNW 03:30:44 20° NNW 03:35:00 10° NNE visible
30 Jul 8.0 00:04:17 40° SSE 00:05:58 53° ESE 00:11:38 10° NE visible
30 Jul 8.8 01:47:46 14° WSW 01:52:31 40° NW 01:58:00 10° NNE visible
30 Jul 9.6 22:29:38 15° ESE 22:29:49 15° ESE 22:32:51 10° ENE visible
31 Jul 7.7 00:13:07 41° SSW 00:15:11 74° ESE 00:21:01 10° NE visible
31 Jul 9.2 01:56:51 10° W 02:02:03 32° NW 02:07:16 10° NNE visible
31 Jul 9.1 22:38:26 21° ESE 22:38:47 21° ESE 22:43:04 10° ENE visible
01 Aug 7.8 00:21:55 36° SW 00:24:29 82° NW 00:30:21 10° NE visible
01 Aug 9.5 02:06:49 10° W 02:11:41 26° NNW 02:16:32 10° NNE visible
01 Aug 8.6 22:47:11 29° ESE 22:47:50 30° ESE 22:52:50 10° NE visible
02 Aug 8.1 00:30:40 27° WSW 00:33:51 62° NW 00:39:39 10° NNE visible
02 Aug 9.8 02:16:52 10° WNW 02:21:21 22° NNW 02:25:51 10° NNE visible
02 Aug 8.2 22:55:53 39° SE 22:56:57 43° ESE 23:02:25 10° NE visible
